When you browse on this site, cookies collect data to enhance your experience and personalize the content and advertising you see.
Visit our Privacy Policy to learn more. By continuing to use the site, you agree to this use of cookies and data.
EN

Hourly Weather Banjul

Today, 9 July, Thursday

Time Temperature Precipitation Wind Pressure Humidity
00:00 +29°C° 0 mm 7 mps 756 mmHg 80%
01:00 +29°C° 0 mm 7 mps 756 mmHg 80%
02:00 +29°C° 0 mm 7 mps 756 mmHg 81%
03:00 +29°C° 0 mm 7 mps 756 mmHg 81%
04:00 +29°C° 0 mm 7 mps 756 mmHg 80%
05:00 +29°C° 0 mm 7 mps 756 mmHg 80%
06:00 +29°C° 0 mm 6 mps 756 mmHg 77%
07:00 +29°C° 0 mm 6 mps 756 mmHg 74%
08:00 +30°C° 0 mm 6 mps 757 mmHg 71%
09:00 +32°C° 0 mm 6 mps 757 mmHg 67%
10:00 +33°C° 0 mm 6 mps 757 mmHg 63%
11:00 +34°C° 0 mm 6 mps 757 mmHg 60%
12:00 +34°C° 0 mm 7 mps 756 mmHg 59%
13:00 +34°C° 0 mm 7 mps 756 mmHg 59%
14:00 +34°C° 0 mm 7 mps 755 mmHg 59%
15:00 +33°C° 0 mm 7 mps 755 mmHg 61%
16:00 +33°C° 0 mm 7 mps 755 mmHg 64%
17:00 +32°C° 0 mm 7 mps 755 mmHg 66%
18:00 +32°C° 0 mm 7 mps 756 mmHg 67%
19:00 +30°C° 0 mm 6 mps 756 mmHg 68%
20:00 +30°C° 0 mm 6 mps 757 mmHg 69%
21:00 +30°C° 0 mm 6 mps 757 mmHg 69%
22:00 +30°C° 0 mm 6 mps 757 mmHg 70%
23:00 +30°C° 0 mm 6 mps 757 mmHg 71%

Tomorrow, 10 July, Friday

Time Temperature Precipitation Wind Pressure Humidity
00:00 +29°C° 0 mm 6 mps 757 mmHg 72%
01:00 +29°C° 0 mm 7 mps 756 mmHg 74%
02:00 +29°C° 0 mm 7 mps 756 mmHg 75%
03:00 +29°C° 0 mm 7 mps 756 mmHg 75%
04:00 +29°C° 0 mm 7 mps 756 mmHg 75%
05:00 +29°C° 0 mm 7 mps 756 mmHg 74%
06:00 +29°C° 0 mm 7 mps 756 mmHg 72%
07:00 +30°C° 0 mm 6 mps 757 mmHg 70%
08:00 +30°C° 0 mm 6 mps 757 mmHg 67%
09:00 +32°C° 0 mm 6 mps 757 mmHg 65%
10:00 +33°C° 0 mm 5 mps 757 mmHg 62%
11:00 +34°C° 0 mm 5 mps 757 mmHg 59%
12:00 +34°C° 0 mm 5 mps 757 mmHg 59%
13:00 +34°C° 0 mm 5 mps 756 mmHg 58%
14:00 +34°C° 0 mm 6 mps 756 mmHg 58%
15:00 +34°C° 0 mm 6 mps 756 mmHg 59%
16:00 +33°C° 0 mm 6 mps 755 mmHg 60%
17:00 +33°C° 0 mm 6 mps 755 mmHg 61%
18:00 +32°C° 0 mm 6 mps 756 mmHg 64%
19:00 +32°C° 0 mm 6 mps 756 mmHg 68%
20:00 +30°C° 0 mm 5 mps 756 mmHg 71%
21:00 +30°C° 0 mm 5 mps 757 mmHg 72%
22:00 +30°C° 0 mm 5 mps 757 mmHg 72%
23:00 +30°C° 0 mm 5 mps 757 mmHg 73%

Day after tomorrow, 11 July, Saturday

Time Temperature Precipitation Wind Pressure Humidity
00:00 +30°C° 0 mm 5 mps 757 mmHg 74%
01:00 +29°C° 0 mm 5 mps 757 mmHg 74%
02:00 +29°C° 0 mm 5 mps 756 mmHg 75%
03:00 +29°C° 0 mm 4 mps 756 mmHg 75%
04:00 +29°C° 0 mm 4 mps 757 mmHg 74%
05:00 +29°C° 0 mm 4 mps 757 mmHg 74%
06:00 +30°C° 0 mm 3 mps 757 mmHg 71%
07:00 +30°C° 0 mm 3 mps 757 mmHg 69%
08:00 +31°C° 0 mm 3 mps 757 mmHg 67%
09:00 +31°C° 0 mm 3 mps 757 mmHg 63%
10:00 +33°C° 0 mm 3 mps 757 mmHg 59%
11:00 +34°C° 0 mm 3 mps 758 mmHg 55%
12:00 +34°C° 0.4 mm 4 mps 757 mmHg 58%
13:00 +33°C° 0.4 mm 5 mps 757 mmHg 61%
14:00 +33°C° 0.4 mm 6 mps 756 mmHg 64%
15:00 +32°C° 1.1 mm 5 mps 756 mmHg 66%
16:00 +32°C° 1.1 mm 5 mps 756 mmHg 68%
17:00 +32°C° 1.1 mm 5 mps 756 mmHg 69%
18:00 +30°C° 0.6 mm 5 mps 756 mmHg 72%
19:00 +30°C° 0.6 mm 5 mps 757 mmHg 74%
20:00 +29°C° 0.6 mm 4 mps 757 mmHg 76%
21:00 +29°C° 0 mm 4 mps 758 mmHg 77%
22:00 +29°C° 0 mm 4 mps 758 mmHg 77%
23:00 +29°C° 0 mm 3 mps 758 mmHg 78%

12 July, Sunday

Time Temperature Precipitation Wind Pressure Humidity
00:00 +28°C° 0.2 mm 3 mps 758 mmHg 78%
01:00 +28°C° 0.2 mm 3 mps 757 mmHg 79%
02:00 +28°C° 0.2 mm 3 mps 757 mmHg 80%
03:00 +28°C° 0 mm 4 mps 757 mmHg 81%
04:00 +28°C° 0 mm 4 mps 757 mmHg 81%
05:00 +28°C° 0 mm 5 mps 757 mmHg 82%
06:00 +28°C° 0 mm 4 mps 757 mmHg 80%
07:00 +29°C° 0 mm 3 mps 758 mmHg 78%
08:00 +29°C° 0 mm 3 mps 758 mmHg 76%
09:00 +30°C° 0.2 mm 3 mps 758 mmHg 71%
10:00 +31°C° 0.2 mm 2 mps 758 mmHg 66%
11:00 +32°C° 0.2 mm 2 mps 758 mmHg 61%
12:00 +32°C° 0.3 mm 2 mps 758 mmHg 59%
13:00 +34°C° 0.3 mm 3 mps 758 mmHg 57%
14:00 +34°C° 0.3 mm 3 mps 757 mmHg 55%
15:00 +33°C° 1.2 mm 4 mps 757 mmHg 59%
16:00 +33°C° 1.2 mm 4 mps 757 mmHg 63%
17:00 +32°C° 1.2 mm 5 mps 757 mmHg 68%
18:00 +30°C° 0.5 mm 5 mps 757 mmHg 71%
19:00 +29°C° 0.5 mm 5 mps 758 mmHg 75%
20:00 +29°C° 0.5 mm 5 mps 759 mmHg 79%
21:00 +29°C° 0 mm 5 mps 759 mmHg 80%
22:00 +28°C° 0 mm 4 mps 759 mmHg 81%
23:00 +28°C° 0 mm 4 mps 759 mmHg 82%

13 July, Monday

Time Temperature Precipitation Wind Pressure Humidity
00:00 +28°C° 0 mm 3 mps 759 mmHg 82%
01:00 +28°C° 0 mm 3 mps 758 mmHg 82%
02:00 +28°C° 0 mm 3 mps 758 mmHg 83%
03:00 +28°C° 0.6 mm 3 mps 758 mmHg 83%
04:00 +28°C° 0.6 mm 2 mps 758 mmHg 83%
05:00 +28°C° 0.6 mm 2 mps 758 mmHg 84%
06:00 +29°C° 0.1 mm 2 mps 758 mmHg 81%
07:00 +29°C° 0.1 mm 1 mps 759 mmHg 78%
08:00 +30°C° 0.1 mm 1 mps 759 mmHg 75%
09:00 +30°C° 0 mm 2 mps 759 mmHg 71%
10:00 +31°C° 0 mm 2 mps 759 mmHg 66%
11:00 +32°C° 0 mm 2 mps 759 mmHg 62%
12:00 +33°C° 0 mm 3 mps 758 mmHg 63%
13:00 +33°C° 0 mm 3 mps 758 mmHg 65%
14:00 +33°C° 0 mm 4 mps 758 mmHg 66%
15:00 +33°C° 0.2 mm 4 mps 757 mmHg 67%
16:00 +32°C° 0.2 mm 5 mps 757 mmHg 69%
17:00 +32°C° 0.2 mm 6 mps 757 mmHg 70%
18:00 +32°C° 1.1 mm 6 mps 757 mmHg 73%
19:00 +30°C° 1.1 mm 6 mps 758 mmHg 75%
20:00 +30°C° 1.1 mm 7 mps 759 mmHg 78%
21:00 +30°C° 0.9 mm 6 mps 759 mmHg 78%
22:00 +29°C° 0.9 mm 6 mps 759 mmHg 79%
23:00 +29°C° 0.9 mm 6 mps 759 mmHg 79%

14 July, Tuesday

Time Temperature Precipitation Wind Pressure Humidity
00:00 +29°C° 1.8 mm 6 mps 759 mmHg 79%
01:00 +29°C° 1.8 mm 6 mps 758 mmHg 80%
02:00 +29°C° 1.8 mm 6 mps 758 mmHg 80%
03:00 +29°C° 1.2 mm 6 mps 758 mmHg 80%
04:00 +29°C° 1.2 mm 6 mps 758 mmHg 81%
05:00 +29°C° 1.2 mm 6 mps 758 mmHg 81%
06:00 +29°C° 1 mm 6 mps 758 mmHg 80%
07:00 +29°C° 1 mm 5 mps 758 mmHg 78%
08:00 +29°C° 1 mm 5 mps 758 mmHg 76%
09:00 +30°C° 0.2 mm 5 mps 758 mmHg 72%
10:00 +32°C° 0.2 mm 4 mps 758 mmHg 69%
11:00 +32°C° 0.2 mm 4 mps 758 mmHg 66%
12:00 +32°C° 0.3 mm 4 mps 757 mmHg 66%
13:00 +32°C° 0.3 mm 4 mps 757 mmHg 67%
14:00 +32°C° 0.3 mm 4 mps 756 mmHg 68%
15:00 +32°C° 0 mm 4 mps 756 mmHg 70%
16:00 +32°C° 0 mm 5 mps 756 mmHg 71%
17:00 +30°C° 0 mm 5 mps 756 mmHg 73%
18:00 +30°C° 0 mm 5 mps 756 mmHg 75%
19:00 +29°C° 0 mm 5 mps 757 mmHg 78%
20:00 +29°C° 0 mm 5 mps 757 mmHg 80%
21:00 +29°C° 0 mm 5 mps 758 mmHg 80%
22:00 +29°C° 0 mm 4 mps 758 mmHg 80%
23:00 +28°C° 0 mm 4 mps 758 mmHg 80%
Show more